Location: *
(58.4167°N, 22.5000°E)
Time: 08:02:03
(UTC+00:00)

Helios 1A - Pass Details

Date: 22 September 2019
Orbit: 583 x 605 km, 98.2° (Epoch: 09 September)

Event Time Altitude Azimuth Distance (km) Brightness Sun altitude
Exits shadow 21:01:31 40° 355° (N) 911 4.3 -29.3°
Drops below altitude 10° 21:04:18 10° 346° (NNW) 1,969 6.5 -29.4°
Sets 21:06:30 0° 345° (NNW) 2,877 7.7 -29.5°
